SIA27 KSEA-ROAH

Flight info

Callsign SIA27
Flight time N/A
Altitude 34000
Route BANGR9 ARRIE J523 TOU DCT FINGS DCT KATCH B757 CJAYY DCT 58N160W DCT OGGOE DCT NANDY R220 NANAC Y810 OLDIV Y802 LIGNI Y84 BUBDO A590 TUNTO R595 SAKON DCT LAFTY LAFTY
Aircraft A359/H-SDE1E2E3GHIJ1J2J3J5M1P2RWXYZ/LB1D1

Departure

Time N/A
Airport Seattle–Tacoma International Airport (KSEA)

Arrival

Time 2026-04-15 15:18
Airport Naha International Airport (ROAH)
Time Latitude Longitude Altitude Speed Heading
2026-04-15 14:42 24.11518 126.72287 39972 ft 466 kts 311°
2026-04-15 14:42 24.13757 126.69730 39956 ft 466 kts 310°
2026-04-15 14:42 24.16423 126.67680 39978 ft 478 kts 329°
2026-04-15 14:43 24.19621 126.66567 39978 ft 489 kts 346°
2026-04-15 14:43 24.23056 126.66514 39969 ft 502 kts
2026-04-15 14:43 24.26447 126.67549 39962 ft 514 kts 20°
2026-04-15 14:43 24.29523 126.69613 39935 ft 524 kts 36°
2026-04-15 14:44 24.32054 126.72487 39387 ft 529 kts 52°
2026-04-15 14:44 24.34000 126.75941 38648 ft 533 kts 56°
2026-04-15 14:44 24.36187 126.79194 37947 ft 528 kts 45°
2026-04-15 14:44 24.38820 126.81960 37282 ft 523 kts 35°
2026-04-15 14:45 24.41733 126.84324 36577 ft 520 kts 29°
2026-04-15 14:45 24.44808 126.86417 35833 ft 519 kts 25°
2026-04-15 14:45 24.47967 126.88341 35078 ft 520 kts 23°
2026-04-15 14:45 24.51185 126.90178 34266 ft 523 kts 22°
2026-04-15 14:46 24.54458 126.91977 33333 ft 527 kts 22°
2026-04-15 14:46 24.57758 126.93756 32409 ft 530 kts 21°
2026-04-15 14:46 24.61080 126.95528 31511 ft 532 kts 21°
2026-04-15 14:46 24.64417 126.97299 30650 ft 533 kts 21°
2026-04-15 14:47 24.67720 126.99047 29802 ft 534 kts 21°
2026-04-15 14:47 24.71059 127.00812 29014 ft 531 kts 21°
2026-04-15 14:47 24.74415 127.02585 28297 ft 526 kts 21°
2026-04-15 14:47 24.77662 127.04298 27605 ft 522 kts 21°
2026-04-15 14:48 24.80918 127.06014 26905 ft 518 kts 22°
2026-04-15 14:48 24.84165 127.07726 26225 ft 515 kts 21°
2026-04-15 14:48 24.87385 127.09424 25538 ft 511 kts 21°
2026-04-15 14:48 24.90578 127.11109 24894 ft 508 kts 22°
2026-04-15 14:49 24.93748 127.12782 24277 ft 503 kts 22°
2026-04-15 14:49 24.96896 127.14443 23673 ft 499 kts 22°
2026-04-15 14:49 25.00012 127.16087 22982 ft 495 kts 22°
2026-04-15 14:49 25.03098 127.17718 22327 ft 489 kts 22°
2026-04-15 14:50 25.06147 127.19330 21708 ft 483 kts 22°
2026-04-15 14:50 25.09158 127.20922 21100 ft 477 kts 22°
2026-04-15 14:50 25.12132 127.22495 20470 ft 472 kts 22°
2026-04-15 14:50 25.15084 127.24058 19852 ft 467 kts 22°
2026-04-15 14:51 25.17991 127.25596 19249 ft 462 kts 22°
2026-04-15 14:51 25.20873 127.27123 18661 ft 457 kts 22°
2026-04-15 14:51 25.23720 127.28632 18034 ft 452 kts 22°
2026-04-15 14:51 25.26537 127.30127 17337 ft 447 kts 22°
2026-04-15 14:52 25.29337 127.31612 16634 ft 444 kts 22°
2026-04-15 14:52 25.32107 127.33082 15978 ft 439 kts 22°
2026-04-15 14:52 25.34846 127.34537 15348 ft 434 kts 22°
2026-04-15 14:52 25.37547 127.35972 14723 ft 429 kts 22°
2026-04-15 14:53 25.40229 127.37398 14093 ft 425 kts 22°
2026-04-15 14:53 25.42884 127.38810 13423 ft 421 kts 23°
2026-04-15 14:53 25.45502 127.40203 12769 ft 416 kts 23°
2026-04-15 14:53 25.48078 127.41575 12433 ft 401 kts 23°
2026-04-15 14:54 25.50510 127.42870 12021 ft 376 kts 22°
2026-04-15 14:54 25.52802 127.44083 11640 ft 354 kts 22°
2026-04-15 14:54 25.54959 127.45219 11304 ft 333 kts 22°
2026-04-15 14:54 25.56984 127.46284 11053 ft 312 kts 21°
2026-04-15 14:55 25.58890 127.47286 10745 ft 297 kts 21°
2026-04-15 14:55 25.60758 127.48264 10326 ft 297 kts 21°
2026-04-15 14:55 25.62307 127.49081 10011 ft 296 kts 21°
2026-04-15 14:55 25.64136 127.50049 9619 ft 295 kts 22°
2026-04-15 14:56 25.65980 127.51030 9248 ft 294 kts 22°
2026-04-15 14:56 25.67813 127.52007 8885 ft 291 kts 22°
2026-04-15 14:56 25.69639 127.52982 8523 ft 290 kts 22°
2026-04-15 14:56 25.71476 127.53867 8131 ft 287 kts 14°
2026-04-15 14:57 25.73395 127.54408 7717 ft 283 kts
2026-04-15 14:57 25.75320 127.54825 7350 ft 280 kts
2026-04-15 14:57 25.77230 127.55218 7003 ft 279 kts
2026-04-15 14:57 25.79132 127.55610 6646 ft 277 kts
2026-04-15 14:58 25.81023 127.56002 6292 ft 276 kts
2026-04-15 14:58 25.82907 127.56396 5923 ft 274 kts
2026-04-15 14:58 25.84773 127.56789 5573 ft 272 kts
2026-04-15 14:58 25.86623 127.57177 5229 ft 269 kts
2026-04-15 14:59 25.88459 127.57563 4885 ft 268 kts
2026-04-15 14:59 25.90291 127.57948 4616 ft 266 kts
2026-04-15 14:59 25.92104 127.58343 4366 ft 265 kts
2026-04-15 14:59 25.93927 127.58722 3885 ft 268 kts
2026-04-15 15:00 25.95755 127.59142 3470 ft 269 kts 12°
2026-04-15 15:00 25.97493 127.59922 3087 ft 269 kts 22°
2026-04-15 15:00 25.99142 127.60854 2866 ft 260 kts 25°
2026-04-15 15:00 26.00705 127.61768 2736 ft 249 kts 25°
2026-04-15 15:01 26.02207 127.62638 2627 ft 237 kts 24°
2026-04-15 15:01 26.03679 127.63341 2492 ft 225 kts 16°
2026-04-15 15:01 26.05142 127.63773 2332 ft 210 kts
2026-04-15 15:01 26.06539 127.63931 2157 ft 193 kts 358°
2026-04-15 15:02 26.07808 127.63854 2003 ft 173 kts 354°
2026-04-15 15:02 26.08957 127.63773 1739 ft 159 kts 357°
2026-04-15 15:02 26.10020 127.63730 1520 ft 147 kts 358°
2026-04-15 15:02 26.11002 127.63684 1327 ft 136 kts 358°
2026-04-15 15:03 26.11938 127.63638 1162 ft 134 kts 358°
2026-04-15 15:03 26.12857 127.63594 994 ft 134 kts 358°
2026-04-15 15:03 26.13787 127.63550 830 ft 133 kts 358°
2026-04-15 15:03 26.14711 127.63506 662 ft 134 kts 359°
2026-04-15 15:04 26.15640 127.63462 500 ft 134 kts 359°
2026-04-15 15:04 26.16571 127.63430 343 ft 134 kts 359°
2026-04-15 15:04 26.17498 127.63398 138 ft 132 kts 359°
2026-04-15 15:04 26.18410 127.63370 154 ft 142 kts
2026-04-15 15:05 26.19497 127.63394 803 ft 169 kts
2026-04-15 15:05 26.20765 127.63387 1495 ft 195 kts 343°
2026-04-15 15:05 26.21902 127.62451 1880 ft 221 kts 307°
2026-04-15 15:05 26.22573 127.60844 1978 ft 233 kts 294°
2026-04-15 15:06 26.24009 127.57602 1993 ft 234 kts 304°
2026-04-15 15:06 26.24908 127.56093 1995 ft 232 kts 308°
2026-04-15 15:06 26.25863 127.54649 1996 ft 231 kts 310°
2026-04-15 15:07 26.26853 127.53236 2001 ft 232 kts 311°
2026-04-15 15:07 26.27837 127.51802 2002 ft 239 kts 306°
2026-04-15 15:07 26.28530 127.50056 1993 ft 254 kts 285°
2026-04-15 15:07 26.28475 127.48077 2021 ft 261 kts 254°
2026-04-15 15:08 26.27469 127.46400 2010 ft 268 kts 221°
2026-04-15 15:08 26.25765 127.45544 2025 ft 274 kts 188°
2026-04-15 15:08 26.23899 127.45798 2019 ft 272 kts 155°
2026-04-15 15:08 26.22450 127.47081 2017 ft 266 kts 122°
2026-04-15 15:09 26.21306 127.48701 2017 ft 271 kts 141°
2026-04-15 15:09 26.19615 127.49619 2027 ft 273 kts 161°
2026-04-15 15:09 26.17806 127.50245 1991 ft 272 kts 163°
2026-04-15 15:09 26.15994 127.50874 1998 ft 273 kts 161°
2026-04-15 15:10 26.15154 127.51182 1997 ft 273 kts 161°
2026-04-15 15:10 26.11965 127.52423 2004 ft 276 kts 160°
2026-04-15 15:10 26.10164 127.53154 2001 ft 276 kts 159°
2026-04-15 15:11 26.08368 127.53892 1995 ft 273 kts 159°
2026-04-15 15:11 26.06583 127.54623 2005 ft 274 kts 159°
2026-04-15 15:11 26.04793 127.55336 2001 ft 268 kts 160°
2026-04-15 15:11 26.03099 127.56026 2008 ft 250 kts 158°
2026-04-15 15:12 26.01734 127.57060 2013 ft 228 kts 127°
2026-04-15 15:12 26.01093 127.58557 2040 ft 208 kts 94°
2026-04-15 15:12 26.01128 127.60147 2047 ft 207 kts 78°
2026-04-15 15:12 26.01417 127.61716 2023 ft 207 kts 68°
2026-04-15 15:13 26.02186 127.63002 1999 ft 197 kts 33°
2026-04-15 15:13 26.03347 127.63648 2006 ft 180 kts 15°
2026-04-15 15:13 26.04545 127.63945 2003 ft 175 kts
2026-04-15 15:13 26.05753 127.63923 2001 ft 174 kts 355°
2026-04-15 15:14 26.06972 127.63863 2000 ft 176 kts 356°
2026-04-15 15:14 26.08201 127.63814 1894 ft 177 kts 357°
2026-04-15 15:14 26.09424 127.63759 1662 ft 175 kts 357°
2026-04-15 15:14 26.10643 127.63701 1415 ft 176 kts 357°
2026-04-15 15:15 26.11862 127.63644 1206 ft 173 kts 357°
2026-04-15 15:15 26.13012 127.63588 967 ft 157 kts 357°
2026-04-15 15:15 26.14050 127.63538 783 ft 143 kts 358°
2026-04-15 15:15 26.15015 127.63493 617 ft 135 kts 358°
2026-04-15 15:16 26.15087 127.63490 601 ft 134 kts 359°
2026-04-15 15:16 26.15975 127.63446 408 ft 132 kts 355°
2026-04-15 15:17 26.16894 127.63399 251 ft 133 kts 360°
2026-04-15 15:17 26.17815 127.63363 68 ft 132 kts 359°
2026-04-15 15:17 26.18682 127.63319 24 ft 105 kts 357°
2026-04-15 15:17 26.19232 127.63291 24 ft 54 kts 357°
2026-04-15 15:18 26.19455 127.63280 26 ft 23 kts 357°
2026-04-15 15:18 26.19608 127.63290 27 ft 21 kts 14°
2026-04-15 15:18 26.19744 127.63341 29 ft 20 kts 26°
2026-04-15 15:18 26.19859 127.63407 26 ft 15 kts 28°
2026-04-15 15:19 26.19913 127.63439 27 ft 8 kts 28°
2026-04-15 15:19 26.19968 127.63447 26 ft 9 kts 359°
2026-04-15 15:19 26.20041 127.63445 24 ft 12 kts 359°
2026-04-15 15:19 26.20128 127.63442 25 ft 14 kts 357°
2026-04-15 15:20 26.20229 127.63435 25 ft 9 kts 356°
2026-04-15 15:20 26.20278 127.63436 28 ft 3 kts 15°
2026-04-15 15:20 26.20293 127.63461 26 ft 7 kts 73°
2026-04-15 15:20 26.20302 127.63533 24 ft 11 kts 86°
2026-04-15 15:21 26.20306 127.63638 27 ft 15 kts 88°
2026-04-15 15:21 26.20310 127.63760 23 ft 17 kts 87°
2026-04-15 15:21 26.20316 127.63896 26 ft 18 kts 88°
2026-04-15 15:21 26.20322 127.64047 27 ft 20 kts 87°
2026-04-15 15:22 26.20328 127.64206 23 ft 22 kts 88°
2026-04-15 15:22 26.20335 127.64378 26 ft 23 kts 87°
2026-04-15 15:22 26.20341 127.64540 25 ft 16 kts 88°
2026-04-15 15:22 26.20345 127.64633 23 ft 11 kts 87°
2026-04-15 15:23 26.20348 127.64713 27 ft 7 kts 87°
2026-04-15 15:23 26.20369 127.64751 28 ft 5 kts 29°
2026-04-15 15:23 26.20400 127.64754 26 ft 6 kts
2026-04-15 15:23 26.20458 127.64753 27 ft 10 kts 358°
2026-04-15 15:24 26.20540 127.64749 24 ft 14 kts 358°
2026-04-15 15:24 26.20660 127.64744 25 ft 19 kts 358°
2026-04-15 15:24 26.20789 127.64738 25 ft 17 kts 357°
2026-04-15 15:24 26.20850 127.64735 25 ft 7 kts 358°
2026-04-15 15:25 26.20894 127.64748 30 ft 6 kts 39°
2026-04-15 15:25 26.20911 127.64787 28 ft 6 kts 75°
2026-04-15 15:25 26.20917 127.64850 26 ft 9 kts 76°
2026-04-15 15:25 26.20960 127.64884 30 ft 8 kts 11°
2026-04-15 15:26 26.20995 127.64893 26 ft 2 kts 48°
2026-04-15 15:26 26.21004 127.64923 27 ft 7 kts 80°
2026-04-15 15:26 26.21006 127.64966 28 ft 3 kts 88°
2026-04-15 15:26 26.21006 127.64980 28 ft 0 kts 88°